Find WHDW 07-02

NORAD ID: 65107 Int'l Des: 2025-168 Owner: ZXW Country: CN Constellation: xingwang operational
LEOCIRCULAR

当前视图

正在加载3D地球...

关于 WHDW 07-02

正在加载描述...

即将过境

Passes for default location (London). Set your location on the main map for personalized predictions.

高度历史

Loading altitude history...

两行轨道根数

1 65107U 25168B 26150.18502429 -.00000055 00000-0 14835-3 0 9991
2 65107 50.0014 30.3813 0009323 36.2069 323.9433 13.29317976 40292
Epoch: May 30, 2026 • Age: 13 hours

当前状态

高度 1145.0 km
速度 7.29 km/s
星下点 36.02°N, 82.22°W
发射日期 Aug 4, 2025
运行时间 0.8 years
类型 other

技术详情

分类 Payload
质量 800.00 kg
干质量 800.00 kg
总质量 800.00 kg
长度 3.00 m
直径 1.00 m
跨度 10.00 m
形状 Box + 2 Pan
制造商 YINNT
平台类型 Xingwang Y
阶段状态 In Orbit
所有者/国家 ZXW/CN

Most Searched